2020-053B (45986 NORAD) Tracking and Keplerian Element Data

This shows tracking and keplerian element data for the satellite.

Feedback or suggestion? Click here.




ElementValue
Catalog45986
Name2020-053B
Epoch Orbit130
Epoch Day331.94428132
Epoch Year2020
RAAN253.9225
Inclination0.2188
Eccentricity0.1096352
Argument of Perigee207.8514
Mean Anonmoly24.6307
Mean Motion1.00294672
Decay Rate-1.81E-06
L11 45986U 20053B 20331.94428132 -.00000181 00000-0 10000-3 0 9999
L22 45986 0.2188 253.9225 1096352 207.8514 24.6307 1.00294672 1301

Live tracking and technical data element details for 2020-053B (NORAD 45986). 2020-053B can be tracked NOW for your location showing map with azimuth and elevation plus other details from your city location.

Track the satellite on the map from your city or location and see movement details for azimuth, elevation, latitude, longitude, range, height, and movement on the map or in text.







IsCatalogInMostPopularTable: catalog: 45986, numindb: 20
Update: records affected: 1



GetName: 45986 2020-053B

Hit Count: updated at: Wed, 02 Dec 2020 05:56:43 GMT